Regional Weather Roundup
Issued by NWS

Home | Current Version | Previous Version | Graphics & Text | Print | Product List | Glossary On
Versions: 1 2 3 4 5 6 7 8 9 10 11 12 13 14 15 16 17 18 19 20 21 22 23 24 25 26 27 28 29 30 31 32 33 34 35 36 37 38 39 40 41 42 43 44 45 46 47 48 49 50
000
ASUS43 KFSD 032302
RWRSD

WEATHER ROUNDUP FOR SOUTH DAKOTA
NATIONAL WEATHER SERVICE SIOUX FALLS SD
600 PM CDT FRI JUL 03 2015

NOTE: "FAIR" INDICATES FEW OR NO CLOUDS BELOW 12,000 FEET WITH NO
SIGNIFICANT WEATHER AND/OR OBSTRUCTIONS TO VISIBILITY.


SDZ001>005-009-010-012>017-040000-
NORTHWEST AND NORTH CENTRAL SOUTH DAKOTA

CITY           SKY/WX    TMP DP  RH WIND       PRES   REMARKS
BUFFALO          N/A     84  55  36 SE12      29.89F
FAITH            N/A     82  59  45 SW9       29.96F
MOBRIDGE       SUNNY     82  64  54 SE5       29.92F HAZE
$$

SDZ012>016-024>037-041>051-057-063-072>074-040000-
SOUTHWEST AND SOUTH CENTRAL SOUTH DAKOTA

CITY           SKY/WX    TMP DP  RH WIND       PRES   REMARKS
RAPID CTY ARPT SUNNY     80  60  50 SE10      29.98F
PIERRE         MOSUNNY   81  60  48 CALM      29.93F HAZE
CUSTER         MOSUNNY   74  52  46 S7        30.11F
ELLSWORTH AFB  SUNNY     81  62  51 SE12      29.98F
PHILIP         SUNNY     82  59  45 VRB5      29.95F HAZE
PINE RIDGE     MOSUNNY   82  56  40 E5        30.00F
WINNER         MOCLDY    85  55  35 CALM      29.96S
$$

SDZ004>011-016>023-039-040-040000-
NORTHEAST SOUTH DAKOTA

CITY           SKY/WX    TMP DP  RH WIND       PRES   REMARKS
ABERDEEN       CLOUDY    83  64  52 E3        29.92F HAZE
WATERTOWN      MOSUNNY   80  63  55 W6        29.94F HAZE
BROOKINGS      MOSUNNY   79  64  61 W7        29.97S
SISSETON         N/A     82  63  52 N3        29.91S
$$

SDZ017-020-022-023-036>040-048>070-040000-
SOUTHEAST SOUTH DAKOTA

CITY           SKY/WX    TMP DP  RH WIND       PRES   REMARKS
SIOUX FALLS    PTSUNNY   78  63  59 N3        29.96F
HURON          MOSUNNY   80  67  64 S6        29.93S
MITCHELL       SUNNY     81  66  60 SE3       29.95S
YANKTON        SUNNY     79  61  53 NW6       29.94F
$$

ABBREVIATIONS USED IN REMARKS
   TC - TEMPERATURE IN CELSIUS
  WCI - WIND CHILL INDEX
   HX - HEAT INDEX
  VSB - VISIBILITY




USA.gov is the U.S. government's official web portal to all federal, state and local government web resources and services.